Location: Bluff Heights
(33.7692°N, 118.1592°W)
Time: 04:22:35
(UTC+00:00)

AO-73 - Pass Details

Date: 28 September 2021
Orbit: 580 x 662 km, 97.6° (Epoch: 26 October)

Event Time Altitude Azimuth Distance (km) Brightness Sun altitude
Rises 12:34:08 0° 9° (N) 2,840 ? -15.6°
Reaches altitude 10° 12:36:20 10° 8° (N) 1,924 ? -15.1°
Maximum altitude 12:40:29 76° 284° (WNW) 605 ? -14.3°
Drops below altitude 10° 12:44:34 10° 198° (SSW) 1,888 ? -13.4°
Sets 12:46:42 0° 196° (SSW) 2,781 ? -13.0°
